Location: Home
(42.5358°N, 72.7383°W)
Time: 05:41:49
(UTC-05:00)

Explorer 11/Cluster Stage 4 - Pass Details

Date: 03 December 2021
Orbit: 467 x 1255 km, 28.8° (Epoch: 25 January)

Event Time Altitude Azimuth Distance (km) Brightness Sun altitude
Rises 07:14:11 0° 257° (WSW) 4,121 9.8 0.9°
Reaches altitude 10° 07:18:41 10° 235° (SW) 3,211 9.5 1.6°
Maximum altitude 07:22:37 14° 206° (SSW) 2,898 9.6 2.2°
Drops below altitude 10° 07:26:33 10° 176° (S) 3,195 10.3 2.8°
Sets 07:31:01 0° 154° (SSE) 4,085 11.5 3.5°
